TITAN 3C TRANSTAGE DEB, 1833

Orbit data source: Space-Track

TITAN 3C TRANSTAGE DEB, 1833 is space debris in LEO originally from a launch on Fri, 15 Oct 1965 UTC launched from the Air Force Eastern Test Range (AFETR). Debris objects in space refer to the collection of defunct objects orbiting the Earth. Examples of debris include non-operational satellites, rocket bodies, and fragments generated from explosions, collisions, or faulty payload assembly.

Loading next visibility...
Identifier
1833, 1965-082DY
Orbit
LEO
Last TLE update
1 day ago
Origin
Manufacturer
Unknown
Mission
Spacecraft
Bus & Motor
Unknown
Mass
Unknown
Launch date (UTC)
1965-10-15 (60 years ago)
Launch vehicle
Unknown
Launch site
Air Force Eastern Test Range (AFETR)
Object type
Payload
Rocket body
Debris
Shape & HBR
Unknown
Radar Cross Section
Medium (>0.1 m² and <1 m²)

Expand to show TLE details & history

TLE from 1 day ago
0 TITAN 3C TRANSTAGE DEB
1 01833U 65082DY  25181.03680857  .00001566  00000-0  23596-3 0  9996
2 01833  32.2254 159.4116 0062266 150.0979 210.3248 14.71190574117991
Epoch: 2025-06-30T00:53Z
TLE epoch observation values (Epoch: 2025-06-30T00:53:00.26Z)
Latitude
-0°
Longitude
-132.19186°
Altitude
693.796 km
Speed
7.491 km/s
True Right ascension
10h 37m 38s
True Declination
0° 00' 00"
Sunlit
Object was in daylight at epoch
Visualization orbit readout
Latitude
-5.47164°
Longitude
-147.37862°
Altitude
699.929 km
Speed
7.485 km/s
Apparent Right ascension
06h 58m 00s
Apparent Declination
-32° 50' 03"
Sunlit
Object is in daylight
Visualization observer readout
Local Sidereal Time
14:30:45
Azimuth
255.234° W
Elevation
-36.989°
Doppler factor
1
Orbital elements
Apogee altitude
704.695 km
Perigee altitude
617.037 km
Semi-major axis
7,039.003 km
Eccentricity
0.00623
Inclination
32.2254°
RAAN
159.4116°
Arg. of periapsis
150.0979°
True anomaly
Unknown
Mean anomaly
210.3248°
Eccentric anomaly
Unknown
Mean motion
3.67516 °/min
Orbital period
97.95 mins
BSTAR
0.00023596
Loading maneuver chart data...
Loading SW <> Apogee altitude chart data...

TITAN 3C TRANSTAGE DEB Visibility forecast

Observer location: undefined°, undefined°

Span
Click to sort rows by Start time (UTC) header in descending order
Start Az.
Max El. time (UTC)
Max El. Az.
Max El.
End time (UTC)
End Az.
7 mins2025-07-01 03:13:32.551Z221.728° SW2025-07-01 03:16:32.551Z176.744° S24.474°2025-07-01 03:20:32.551Z114.024° SE
6 mins2025-07-01 04:57:32.551Z232.388° WSW2025-07-01 04:59:32.551Z196.838° SSW26.728°2025-07-01 05:03:32.551Z126.404° SE
4 mins2025-07-01 06:41:32.551Z224.067° SW2025-07-01 06:43:32.551Z190.87° SSW17.843°2025-07-01 06:45:32.551Z161.584° S
5 mins2025-07-02 02:00:32.551Z192.912° SSW2025-07-02 02:02:32.551Z159.988° S20.067°2025-07-02 02:05:32.551Z117.769° SE
|